[[{"header":{"parameterUnit":"m.s-1","parameterCategory":2,"la1":30.2991,"la2":30.254,"lo1":-89.0895,"lo2":-89.0444,"dy":0.0017,"dx":0.0017,"nx":28,"ny":28,"refTime":"2025-11-14T09:00:00:Z","depth":"0","parameterNumber":2,"parameterNumberName":"U-component_of_CURRENTS"},"data":[0,0,0,0,0,0,0,0,0,0,0,0,0,0,0,0,0,0,0,0,0,0,0,0,0,0,0,0,0,0,0,0,0,0,0,0,0,0,0,0,0,0,0,0,0,0,0,0,0,0,0,0,0,0,0,0,0,0,-0.0236,-0.0237,0,-0.0242,-0.0242,-0.0242,-0.0227,-0.0226,-0.0226,-0.0226,-0.013,-0.0128,-0.0126,0,0,0,0,0,0,0,0,0,0,0,0,0,-0.0192,-0.0192,-0.0236,-0.0237,-0.0237,-0.0242,-0.0242,-0.0242,-0.0227,-0.0226,-0.0226,-0.0226,-0.0131,-0.0128,-0.0126,0,0,0,0,0,0,0,0,0,0,0,0,0,-0.0203,-0.0193,-0.0236,-0.0232,-0.0232,-0.0242,-0.0242,-0.0242,-0.0227,-0.0226,-0.0226,-0.0226,-0.0132,-0.0129,-0.0125,-0.0109,0,0,-0.0114,-0.0113,0,0,0,0,0,0,0,0,-0.0202,-0.0204,-0.0233,-0.0233,-0.0233,-0.0236,-0.0191,-0.0193,-0.0227,-0.0226,-0.0226,-0.0226,-0.0159,-0.0153,-0.0152,-0.0105,-0.01,-0.0114,-0.0112,-0.011,-0.0109,0,0,0,0,0,0,0,-0.0201,-0.0203,-0.0235,-0.0233,-0.0233,-0.0224,-0.0225,-0.0192,-0.0189,-0.0226,-0.0225,-0.0231,-0.0157,-0.0155,-0.0149,-0.0099,-0.0114,-0.0111,-0.0109,-0.0107,-0.008,-0.0082,0,0,0,0,0,0,-0.0208,-0.0203,-0.0235,-0.0236,-0.022,-0.0225,-0.0226,-0.0233,-0.0192,-0.0187,-0.0231,-0.023,-0.0161,-0.0153,-0.0145,-0.0193,-0.011,-0.0107,-0.0105,-0.0079,-0.0081,-0.0082,0,0,0,0,0,0,-0.0207,-0.0211,-0.0235,-0.0222,-0.0225,-0.0226,-0.0234,-0.0233,-0.0219,-0.0198,-0.019,-0.0217,-0.0161,-0.015,-0.0125,-0.0186,-0.0105,-0.0102,-0.0077,-0.0079,-0.0081,-0.0243,0,0,0,0,0,0,-0.0206,-0.0211,-0.0206,-0.0223,-0.0226,-0.0249,-0.0234,-0.0234,-0.0226,-0.0224,-0.0183,-0.0175,-0.016,-0.0131,-0.0122,-0.018,-0.0099,-0.0075,-0.0078,-0.0081,-0.0236,-0.025,-0.0263,0,0,0,0,0,-0.0204,-0.0207,-0.0206,-0.021,-0.0224,-0.025,-0.0251,-0.0248,-0.0225,-0.023,-0.0204,-0.0176,-0.0142,-0.0128,-0.0118,-0.0177,-0.0074,-0.0077,-0.008,-0.023,-0.0248,-0.0263,0,0,0,0,0,0,-0.0204,-0.0206,-0.0206,-0.0213,-0.0233,-0.0249,-0.0256,-0.024,-0.0223,-0.0221,-0.0179,-0.017,-0.017,-0.0138,-0.0124,-0.0174,-0.0109,-0.011,-0.0226,-0.0242,-0.0255,-0.0258,-0.0097,0,0,0,0,0,-0.0199,-0.0175,-0.0211,-0.0208,-0.0234,-0.0237,-0.024,-0.0246,-0.024,-0.0232,-0.0211,-0.0189,-0.0177,-0.0179,-0.0154,-0.0174,-0.0168,-0.0206,-0.022,-0.0232,-0.0225,-0.03,-0.0321,-0.0092,-0.0092,-0.0092,0,0,-0.0172,-0.019,-0.0162,-0.0201,-0.0221,-0.0268,-0.0239,-0.0262,-0.029,-0.0222,-0.0245,-0.0217,-0.0183,-0.0217,-0.0217,-0.0202,-0.0293,-0.0236,-0.0247,-0.0233,-0.0306,-0.0329,-0.0349,-0.0095,-0.0094,-0.0094,0,0,-0.0166,-0.0163,-0.0169,-0.0201,-0.025,-0.0271,-0.0276,-0.0308,-0.0318,-0.0321,-0.0301,-0.0317,-0.0271,-0.0311,-0.0307,-0.0372,-0.0344,-0.0356,-0.0452,-0.0528,-0.0548,-0.0566,-0.0595,-0.0614,-0.0388,-0.0388,-0.0389,0,-0.0151,-0.0174,-0.0175,-0.0234,-0.0263,-0.0276,-0.0327,-0.0349,-0.036,-0.0383,-0.0341,-0.0356,-0.0328,-0.0412,-0.0434,-0.041,-0.0417,-0.0403,-0.055,-0.0568,-0.0583,-0.0608,-0.0627,-0.0397,-0.0396,-0.0395,-0.0394,0,-0.0182,-0.0202,-0.0225,-0.0291,-0.0325,-0.0365,-0.0423,-0.0456,-0.0452,-0.0472,-0.0524,-0.0514,-0.0525,-0.0542,-0.0492,-0.0609,-0.0566,-0.0547,-0.052,-0.0617,-0.0636,-0.0653,-0.0408,-0.0405,-0.0403,-0.0401,0,0,-0.0139,-0.0223,-0.0231,-0.0266,-0.036,-0.0389,-0.0472,-0.0549,-0.0593,-0.0625,-0.0694,-0.0707,-0.0704,-0.0698,-0.0695,-0.0767,-0.088,-0.07,-0.07,-0.0746,-0.1014,-0.081,-0.0808,-0.0891,-0.0895,-0.0898,-0.0987,0,-0.0169,-0.0268,-0.0302,-0.037,-0.0429,-0.0482,-0.0546,-0.0615,-0.0656,-0.0731,-0.0787,-0.0818,-0.0769,-0.078,-0.0855,-0.0857,-0.0928,-0.0854,-0.0895,-0.0895,-0.0719,-0.0822,-0.0618,-0.0664,-0.1003,-0.1006,-0.1008,0,-0.0192,-0.0262,-0.0353,-0.0417,-0.0449,-0.0476,-0.0586,-0.0648,-0.0775,-0.0807,-0.0898,-0.0919,-0.1032,-0.0961,-0.1078,-0.1027,-0.1018,-0.103,-0.1034,-0.0791,-0.0722,-0.0618,-0.0681,-0.071,-0.1033,-0.1031,-0.1029,0,-0.0166,-0.0269,-0.0336,-0.0369,-0.0478,-0.05,-0.0536,-0.0654,-0.0708,-0.0856,-0.0899,-0.1045,-0.1083,-0.1152,-0.1125,-0.1119,-0.1221,-0.123,-0.1055,-0.104,-0.0842,-0.0801,-0.0945,-0.1315,-0.1315,-0.1314,-0.1314,0,-0.0165,-0.0201,-0.031,-0.0345,-0.0386,-0.0468,-0.0514,-0.0585,-0.0706,-0.0764,-0.0912,-0.0978,-0.1123,-0.1183,-0.1185,-0.1138,-0.1272,-0.1074,-0.1059,-0.0886,-0.085,-0.0839,-0.0906,-0.1318,-0.1317,-0.1316,-0.1316,0,-0.0081,-0.0178,-0.0246,-0.0356,-0.0368,-0.0385,-0.0432,-0.0473,-0.0603,-0.0694,-0.0738,-0.0939,-0.0998,-0.1091,-0.1189,-0.1164,-0.1137,-0.1114,-0.0863,-0.0814,-0.0665,-0.0746,-0.0864,-0.0831,-0.0992,-0.0988,-0.0984,0,-0.0048,-0.0083,-0.021,-0.0231,-0.0249,-0.0279,-0.0289,-0.0394,-0.0429,-0.0634,-0.0659,-0.0792,-0.0816,-0.0897,-0.0868,-0.0862,-0.0954,-0.0703,-0.0656,-0.0631,-0.0716,-0.0805,-0.0778,-0.0483,-0.0475,-0.0469,-0.0464,0,0.003,-0.002,-0.0067,-0.0117,-0.0121,-0.0142,-0.0144,-0.0164,-0.0304,-0.0381,-0.0478,-0.0533,-0.0572,-0.0446,-0.042,-0.0455,-0.0664,-0.0571,-0.0653,-0.0405,-0.0413,-0.0377,-0.0438,-0.0409,-0.0415,-0.0419,-0.0422,-0.0424,0.0108,0.0125,0.005,0.0034,0.0011,0.0014,0.0042,0.0021,-0.0016,-0.0087,-0.0213,-0.0191,-0.0057,0.0028,-0.0092,-0.0083,-0.0226,-0.0058,-0.0186,-0.03,-0.0185,-0.0074,0.0054,0.0051,0.0049,0.0047,0.0045,0,0.0152,0.0199,0.0209,0.0172,0.0183,0.0134,0.0137,0.0165,0.0181,0.0181,0.0153,0.0369,0.0545,0.0486,0.0587,0.0411,0.0198,0.023,0.0094,0.0083,0.0107,0.0224,0.0528,0.0528,0.0528,0.0528,0.0528,0.0528,0.0186,0.0223,0.0252,0.0316,0.0317,0.0342,0.0357,0.0393,0.0421,0.0542,0.0663,0.0714,0.0843,0.0884,0.0741,0.0559,0.0297,0.0263,0.0077,0.0058,0.0018,-0.0019,0.0074,0.0342,0.0342,0.0176,0.0174,0.0172]},{"header":{"parameterUnit":"m.s-1","parameterCategory":2,"la1":30.2991,"la2":30.254,"lo1":-89.0895,"lo2":-89.0444,"dy":0.0017,"dx":0.0017,"nx":28,"ny":28,"refTime":"2025-11-14T09:00:00:Z","depth":"0","parameterNumber":3,"parameterNumberName":"V-component_of_CURRENTS"},"data":[0,0,0,0,0,0,0,0,0,0,0,0,0,0,0,0,0,0,0,0,0,0,0,0,0,0,0,0,0,0,0,0,0,0,0,0,0,0,0,0,0,0,0,0,0,0,0,0,0,0,0,0,0,0,0,0,0,0,-0.0133,-0.0133,0,-0.0034,-0.0032,-0.003,0.0037,0.0036,0.0036,0.0035,0.0152,0.0155,0.0159,0,0,0,0,0,0,0,0,0,0,0,0,0,-0.0136,-0.0136,-0.0133,-0.0133,-0.0133,-0.0034,-0.0032,-0.003,0.0037,0.0036,0.0036,0.0035,0.0151,0.0155,0.0159,0,0,0,0,0,0,0,0,0,0,0,0,0,-0.0087,-0.0137,-0.0133,-0.0095,-0.0091,-0.0035,-0.0032,-0.0029,0.0037,0.0036,0.0035,0.0035,0.0149,0.0155,0.016,0.0206,0,0,0.0176,0.0178,0,0,0,0,0,0,0,0,-0.009,-0.0085,-0.0101,-0.0098,-0.0094,-0.0021,0.0009,0.0047,0.0037,-0.0001,0.0035,0.0034,0.009,0.01,0.0134,0.0212,0.0217,0.0176,0.018,0.0182,0.0183,0,0,0,0,0,0,0,-0.0093,-0.0089,-0.0084,-0.0101,-0.0096,-0.0039,-0.0033,0.0018,0.0055,0.0002,0.0005,-0.0,0.0093,0.0129,0.0137,0.0218,0.0176,0.0181,0.0184,0.0186,0.0347,0.0348,0,0,0,0,0,0,-0.0132,-0.0093,-0.0087,-0.0082,-0.0104,-0.004,-0.0032,-0.0035,0.0054,0.0064,0.0,0.0002,0.012,0.0131,0.0142,0.0188,0.0182,0.0187,0.019,0.0346,0.0348,0.0349,0,0,0,0,0,0,-0.0132,-0.0132,-0.0091,-0.0093,-0.0085,-0.0041,-0.0043,-0.0033,0.0003,0.0051,0.0063,0.0023,0.012,0.0134,0.0192,0.0193,0.0189,0.0194,0.0345,0.0347,0.0348,0.0288,0,0,0,0,0,0,-0.0132,-0.0133,-0.0137,-0.0096,-0.0087,-0.0071,-0.0044,-0.0031,-0.0004,0.0,0.0075,0.0085,0.0121,0.0184,0.0197,0.02,0.0198,0.0344,0.0346,0.0348,0.0289,0.0288,0.0287,0,0,0,0,0,-0.0133,-0.015,-0.0138,-0.0137,-0.0098,-0.0073,-0.0061,-0.0025,-0.0003,0.0008,0.0067,0.0083,0.0206,0.0189,0.0205,0.0209,0.0343,0.0345,0.0347,0.029,0.0288,0.0287,0,0,0,0,0,0,-0.0157,-0.0145,-0.013,-0.0143,-0.0116,-0.0066,-0.0061,-0.0024,0.0036,0.0043,0.0102,0.0117,0.0166,0.0204,0.0184,0.0264,0.0275,0.0281,0.0226,0.0225,0.0224,0.0168,0.0203,0,0,0,0,0,-0.0167,-0.0166,-0.0147,-0.015,-0.0152,-0.0099,-0.0081,-0.0052,-0.0004,0.0023,0.0077,0.0138,0.0191,0.0219,0.0271,0.0319,0.0349,0.0333,0.0331,0.033,0.0297,0.0375,0.0377,0.0357,0.0357,0.0357,0,0,-0.0165,-0.0167,-0.0159,-0.0153,-0.0131,-0.0139,-0.0088,-0.0069,-0.0062,0.0026,0.0063,0.0136,0.0205,0.0254,0.028,0.0284,0.0354,0.0333,0.0331,0.0298,0.0378,0.038,0.0381,0.0359,0.0358,0.0358,0,0,-0.0198,-0.0181,-0.0208,-0.0197,-0.0188,-0.0157,-0.0157,-0.0106,-0.0076,-0.0023,0.004,0.0119,0.0196,0.0252,0.0288,0.0317,0.0346,0.0331,0.0278,0.0356,0.0357,0.0359,0.0397,0.0402,0.033,0.033,0.033,0,-0.0205,-0.0241,-0.0206,-0.0244,-0.0245,-0.0176,-0.0205,-0.0163,-0.0088,-0.0075,-0.0028,0.0114,0.0193,0.0245,0.0262,0.0311,0.0339,0.0273,0.0351,0.0353,0.0356,0.0395,0.0402,0.0327,0.0327,0.0328,0.0328,0,-0.0268,-0.0295,-0.0314,-0.0336,-0.0322,-0.0329,-0.0291,-0.0264,-0.0207,-0.0161,-0.0087,0.0046,0.0119,0.0176,0.023,0.0284,0.0291,0.0339,0.0344,0.0354,0.0395,0.0403,0.0323,0.0324,0.0325,0.0326,0,0,-0.0284,-0.035,-0.0354,-0.0389,-0.0373,-0.037,-0.0371,-0.0357,-0.0371,-0.0252,-0.0247,-0.0088,-0.0012,0.0035,0.0136,0.022,0.0295,0.0275,0.028,0.0291,0.0427,0.0488,0.0503,0.035,0.0351,0.0352,0.0446,0,-0.0346,-0.0446,-0.0448,-0.0505,-0.0546,-0.0502,-0.0514,-0.048,-0.0431,-0.0405,-0.0257,-0.0199,-0.007,-0.0021,0.0083,0.0241,0.0312,0.0262,0.0432,0.0436,0.0473,0.0514,0.056,0.0652,0.0454,0.0455,0.0456,0,-0.0404,-0.0467,-0.0559,-0.0614,-0.063,-0.0646,-0.0659,-0.066,-0.0616,-0.0576,-0.0489,-0.0386,-0.024,-0.0127,0.0126,0.0081,0.023,0.0361,0.0369,0.0443,0.0513,0.0615,0.0675,0.0714,0.0469,0.0468,0.0467,0,-0.0434,-0.0529,-0.061,-0.0626,-0.0684,-0.0714,-0.0724,-0.0709,-0.0723,-0.0684,-0.068,-0.051,-0.0403,-0.0198,0.0106,0.0099,0.0382,0.0411,0.0594,0.0599,0.0679,0.0689,0.0778,0.0562,0.0562,0.0562,0.0561,0,-0.0489,-0.0544,-0.0638,-0.0685,-0.0752,-0.0772,-0.0836,-0.0832,-0.0845,-0.0854,-0.0763,-0.0714,-0.0412,-0.0205,0.0042,0.0361,0.0343,0.0575,0.0635,0.0661,0.0669,0.0739,0.0728,0.0565,0.0564,0.0564,0.0563,0,-0.0488,-0.0564,-0.0654,-0.0752,-0.0774,-0.0812,-0.0884,-0.0922,-0.0958,-0.0968,-0.0957,-0.084,-0.0549,-0.0236,0.0128,0.0292,0.0641,0.0694,0.0689,0.0747,0.091,0.0894,0.1004,0.1116,0.0858,0.086,0.0862,0,-0.0485,-0.0554,-0.0679,-0.0715,-0.0758,-0.083,-0.0865,-0.0934,-0.0971,-0.1019,-0.1005,-0.0805,-0.0608,-0.01,0.0304,0.0722,0.0791,0.0907,0.0914,0.0919,0.0945,0.0911,0.0995,0.0993,0.0996,0.0998,0.1,0,-0.0476,-0.0539,-0.0611,-0.0696,-0.075,-0.0814,-0.0879,-0.0934,-0.1008,-0.1045,-0.102,-0.0902,-0.0433,0.0033,0.0546,0.0803,0.0925,0.0963,0.0992,0.1068,0.1013,0.1151,0.0893,0.1021,0.1019,0.1017,0.1016,0.1015,-0.0438,-0.0468,-0.0575,-0.0642,-0.0697,-0.075,-0.0787,-0.086,-0.0916,-0.0925,-0.0925,-0.0738,-0.0271,0.048,0.0735,0.1168,0.1154,0.1251,0.1231,0.1195,0.1301,0.1062,0.1248,0.1247,0.1246,0.1246,0.1245,0,-0.0394,-0.0442,-0.05,-0.058,-0.0614,-0.0672,-0.0748,-0.0761,-0.0781,-0.0776,-0.0727,-0.035,0.0182,0.0635,0.1241,0.1393,0.1442,0.1459,0.141,0.1495,0.1316,0.132,0.1502,0.1502,0.1502,0.1502,0.1501,0.1501,-0.036,-0.0407,-0.0443,-0.0476,-0.052,-0.0538,-0.0566,-0.0573,-0.0566,-0.0438,-0.0288,-0.0149,0.0365,0.0928,0.1415,0.1508,0.1602,0.1586,0.1662,0.149,0.1468,0.1447,0.145,0.1656,0.1656,0.1879,0.188,0.1881]}],[{"header":{"parameterUnit":"m.s-1","parameterCategory":2,"la1":30.2991,"la2":30.254,"lo1":-89.0895,"lo2":-89.0444,"dy":0.0017,"dx":0.0017,"nx":28,"ny":28,"refTime":"2025-11-14T09:00:00:Z","depth":"2","parameterNumber":2,"parameterNumberName":"U-component_of_CURRENTS"},"data":[0,0,0,0,0,0,0,0,0,0,0,0,0,0,0,0,0,0,0,0,0,0,0,0,0,0,0,0,0,0,0,0,0,0,0,0,0,0,0,0,0,0,0,0,0,0,0,0,0,0,0,0,0,0,0,0,0,0,-0.3014,-0.3014,0,-0.2979,-0.2979,-0.2978,-0.2933,-0.2932,-0.2932,-0.2931,-0.2844,-0.2842,-0.284,0,0,0,0,0,0,0,0,0,0,0,0,0,-0.2946,-0.2948,-0.3014,-0.3014,-0.3014,-0.298,-0.2979,-0.2978,-0.2933,-0.2932,-0.2932,-0.2931,-0.2845,-0.2842,-0.284,0,0,0,0,0,0,0,0,0,0,0,0,0,-0.2947,-0.2949,-0.3014,-0.2989,-0.2987,-0.298,-0.2979,-0.2978,-0.2933,-0.2932,-0.2932,-0.2931,-0.2845,-0.2843,-0.284,-0.2835,0,0,-0.2831,-0.283,0,0,0,0,0,0,0,0,-0.2947,-0.2949,-0.2993,-0.2991,-0.2989,-0.2963,-0.2923,-0.2929,-0.2933,-0.295,-0.2931,-0.2931,-0.2881,-0.2876,-0.2866,-0.2831,-0.2827,-0.2831,-0.2829,-0.2828,-0.2827,0,0,0,0,0,0,0,-0.2947,-0.295,-0.2997,-0.2993,-0.299,-0.2948,-0.2948,-0.2923,-0.2916,-0.2948,-0.2946,-0.2948,-0.2879,-0.2869,-0.2864,-0.2826,-0.2831,-0.2828,-0.2826,-0.2825,-0.2747,-0.2747,0,0,0,0,0,0,-0.2965,-0.2951,-0.2998,-0.2996,-0.297,-0.2951,-0.295,-0.2969,-0.2918,-0.291,-0.2948,-0.2946,-0.2875,-0.2867,-0.2861,-0.2806,-0.2828,-0.2825,-0.2823,-0.2747,-0.2747,-0.2747,0,0,0,0,0,0,-0.2964,-0.297,-0.2999,-0.2974,-0.2975,-0.2954,-0.2974,-0.2969,-0.2953,-0.2919,-0.291,-0.2938,-0.2874,-0.2865,-0.2836,-0.2804,-0.2824,-0.2821,-0.2748,-0.2747,-0.2747,-0.2725,0,0,0,0,0,0,-0.2962,-0.297,-0.2983,-0.2976,-0.2977,-0.3,-0.2975,-0.2969,-0.2957,-0.2953,-0.2907,-0.2898,-0.2873,-0.2841,-0.2834,-0.28,-0.2819,-0.2748,-0.2748,-0.2747,-0.2727,-0.2724,-0.2722,0,0,0,0,0,-0.296,-0.2991,-0.2984,-0.2989,-0.2999,-0.3001,-0.2997,-0.2976,-0.2957,-0.2957,-0.2922,-0.2899,-0.2831,-0.2839,-0.283,-0.2795,-0.2749,-0.2748,-0.2747,-0.2728,-0.2725,-0.2722,0,0,0,0,0,0,-0.2955,-0.2989,-0.2982,-0.3017,-0.3009,-0.2995,-0.2993,-0.2977,-0.2949,-0.294,-0.29,-0.2889,-0.2854,-0.2836,-0.2845,-0.2773,-0.2784,-0.2781,-0.2772,-0.2769,-0.2767,-0.2763,-0.2816,0,0,0,0,0,-0.2965,-0.3006,-0.3007,-0.3031,-0.3029,-0.3007,-0.3002,-0.299,-0.2969,-0.2955,-0.2918,-0.2879,-0.2845,-0.2818,-0.2795,-0.2755,-0.2718,-0.2727,-0.2725,-0.2723,-0.2715,-0.2646,-0.2636,-0.2744,-0.2744,-0.2744,0,0,-0.2974,-0.2993,-0.3016,-0.3034,-0.3021,-0.301,-0.3001,-0.3,-0.2973,-0.2951,-0.2898,-0.2878,-0.2839,-0.2795,-0.2775,-0.2771,-0.267,-0.2722,-0.272,-0.2713,-0.2644,-0.2633,-0.2624,-0.2743,-0.2744,-0.2744,0,0,-0.2993,-0.3019,-0.3046,-0.3041,-0.3036,-0.3021,-0.3021,-0.3,-0.2972,-0.2937,-0.2907,-0.2866,-0.2817,-0.2771,-0.2743,-0.2716,-0.2672,-0.2712,-0.2678,-0.2611,-0.2601,-0.2592,-0.2515,-0.25,-0.2697,-0.2697,-0.2697,0,-0.2998,-0.3017,-0.3047,-0.3047,-0.3028,-0.3023,-0.3004,-0.2985,-0.2952,-0.2918,-0.292,-0.2827,-0.2797,-0.2721,-0.2711,-0.2706,-0.2666,-0.2688,-0.2606,-0.2596,-0.2587,-0.2511,-0.2494,-0.2695,-0.2696,-0.2696,-0.2696,0,-0.3017,-0.302,-0.3028,-0.3027,-0.3017,-0.3006,-0.2981,-0.2956,-0.2923,-0.2892,-0.2826,-0.2789,-0.2726,-0.271,-0.2699,-0.2616,-0.2607,-0.2621,-0.2609,-0.2575,-0.2497,-0.2479,-0.2694,-0.2694,-0.2695,-0.2695,0,0,-0.3048,-0.3045,-0.3042,-0.3002,-0.2997,-0.2974,-0.2946,-0.2896,-0.2841,-0.2819,-0.274,-0.2691,-0.2675,-0.2644,-0.262,-0.2561,-0.2457,-0.2563,-0.256,-0.2479,-0.2297,-0.2232,-0.2206,-0.2459,-0.2456,-0.2454,-0.2263,0,-0.3034,-0.3011,-0.3024,-0.2964,-0.2926,-0.2914,-0.287,-0.2831,-0.2792,-0.2723,-0.2687,-0.2624,-0.2647,-0.2609,-0.2556,-0.2488,-0.2413,-0.2507,-0.2349,-0.2344,-0.2283,-0.2184,-0.205,-0.1864,-0.2245,-0.2242,-0.224,0,-0.303,-0.3,-0.2955,-0.2875,-0.2858,-0.2834,-0.2741,-0.2708,-0.2648,-0.2618,-0.2578,-0.2557,-0.2477,-0.2506,-0.2362,-0.2424,-0.2356,-0.2306,-0.2298,-0.2232,-0.2245,-0.1963,-0.1817,-0.221,-0.2213,-0.2215,-0.2217,0,-0.2985,-0.2939,-0.2887,-0.2868,-0.2801,-0.2766,-0.273,-0.2672,-0.2608,-0.2562,-0.2501,-0.245,-0.2382,-0.2321,-0.2235,-0.2291,-0.2064,-0.2125,-0.1996,-0.1991,-0.184,-0.1826,-0.2003,-0.2003,-0.2003,-0.2004,-0.2004,0,-0.2951,-0.2895,-0.2857,-0.282,-0.2713,-0.2709,-0.2605,-0.2574,-0.2514,-0.2412,-0.2441,-0.2346,-0.2332,-0.2217,-0.2177,-0.2006,-0.2008,-0.1953,-0.1922,-0.1829,-0.1817,-0.2107,-0.2122,-0.1997,-0.1998,-0.2,-0.2001,0,-0.2892,-0.2892,-0.2794,-0.2719,-0.269,-0.261,-0.2522,-0.2439,-0.2419,-0.2289,-0.2271,-0.2226,-0.2093,-0.2038,-0.1907,-0.1886,-0.1767,-0.1705,-0.1594,-0.1555,-0.1759,-0.1775,-0.1549,-0.1544,-0.1541,-0.1538,-0.1535,0,-0.2853,-0.2805,-0.2703,-0.2625,-0.2587,-0.2488,-0.2408,-0.2387,-0.231,-0.2194,-0.2113,-0.1994,-0.189,-0.1687,-0.1601,-0.1474,-0.1585,-0.131,-0.1402,-0.1711,-0.1705,-0.1727,-0.1747,-0.1183,-0.1178,-0.1174,-0.1171,0,-0.2725,-0.2704,-0.2619,-0.2471,-0.2378,-0.2266,-0.2176,-0.2119,-0.2072,-0.1984,-0.1861,-0.1792,-0.1601,-0.1436,-0.1292,-0.1217,-0.1338,-0.1222,-0.1504,-0.1346,-0.1358,-0.1357,-0.1389,-0.1133,-0.1137,-0.1139,-0.1141,-0.1143,-0.2604,-0.2505,-0.2403,-0.2251,-0.2147,-0.2031,-0.1936,-0.187,-0.176,-0.1587,-0.16,-0.1402,-0.1364,-0.106,-0.0973,-0.0905,-0.1041,-0.1031,-0.1047,-0.1066,-0.1085,-0.1092,-0.0819,-0.0821,-0.0822,-0.0824,-0.0825,0,-0.2405,-0.2314,-0.2172,-0.1996,-0.1852,-0.1852,-0.174,-0.165,-0.1516,-0.1341,-0.1209,-0.094,-0.0811,-0.0771,-0.0628,-0.0637,-0.0648,-0.0604,-0.0648,-0.0684,-0.0717,-0.0722,-0.0357,-0.0356,-0.0355,-0.0354,0,0,-0.2289,-0.2106,-0.2034,-0.1747,-0.1634,-0.1454,-0.1392,-0.1292,-0.1167,-0.0912,-0.0729,-0.0635,-0.0695,-0.0475,-0.0472,-0.0411,-0.0528,-0.0356,-0.0728,-0.0812,-0.0843,-0.0955,-0.1002,0,0,0,0,0]},{"header":{"parameterUnit":"m.s-1","parameterCategory":2,"la1":30.2991,"la2":30.254,"lo1":-89.0895,"lo2":-89.0444,"dy":0.0017,"dx":0.0017,"nx":28,"ny":28,"refTime":"2025-11-14T09:00:00:Z","depth":"2","parameterNumber":3,"parameterNumberName":"V-component_of_CURRENTS"},"data":[0,0,0,0,0,0,0,0,0,0,0,0,0,0,0,0,0,0,0,0,0,0,0,0,0,0,0,0,0,0,0,0,0,0,0,0,0,0,0,0,0,0,0,0,0,0,0,0,0,0,0,0,0,0,0,0,0,0,0.0347,0.0348,0,0.0497,0.0499,0.05,0.0545,0.0544,0.0543,0.0542,0.0673,0.0677,0.0682,0,0,0,0,0,0,0,0,0,0,0,0,0,0.0172,0.0175,0.0347,0.0349,0.035,0.0497,0.0499,0.0501,0.0545,0.0544,0.0543,0.0542,0.0672,0.0677,0.0682,0,0,0,0,0,0,0,0,0,0,0,0,0,0.0278,0.0175,0.0346,0.0389,0.0395,0.0496,0.0499,0.0501,0.0545,0.0544,0.0542,0.0541,0.067,0.0676,0.0683,0.0748,0,0,0.0702,0.0705,0,0,0,0,0,0,0,0,0.0272,0.0284,0.0381,0.0387,0.0393,0.05,0.0485,0.0583,0.0545,0.0489,0.0542,0.0541,0.0614,0.0625,0.0657,0.0754,0.0759,0.0703,0.0707,0.071,0.0711,0,0,0,0,0,0,0,0.0264,0.0279,0.0407,0.0383,0.039,0.0427,0.044,0.0505,0.0557,0.0493,0.0497,0.0513,0.0617,0.0651,0.0661,0.0761,0.0703,0.0708,0.0712,0.0715,0.087,0.087,0,0,0,0,0,0,0.0243,0.0272,0.0402,0.0411,0.0327,0.043,0.0445,0.0468,0.0557,0.0569,0.0514,0.0515,0.0641,0.0653,0.0665,0.0699,0.071,0.0716,0.0719,0.0869,0.087,0.087,0,0,0,0,0,0,0.0238,0.0253,0.0396,0.0344,0.0364,0.0434,0.046,0.0471,0.0489,0.0572,0.0584,0.0517,0.064,0.0656,0.0704,0.0706,0.0718,0.0724,0.0869,0.0869,0.087,0.0798,0,0,0,0,0,0,0.0233,0.0251,0.0253,0.0343,0.0366,0.0443,0.0461,0.0475,0.0502,0.0503,0.058,0.0592,0.064,0.0694,0.071,0.0715,0.0729,0.0869,0.0869,0.087,0.08,0.0796,0.0792,0,0,0,0,0,0.0226,0.0238,0.0252,0.0268,0.037,0.0443,0.0459,0.0505,0.0502,0.0514,0.0557,0.0588,0.0709,0.07,0.0719,0.0725,0.0868,0.0869,0.087,0.0802,0.0797,0.0793,0,0,0,0,0,0,0.0162,0.0247,0.0264,0.0299,0.0358,0.045,0.0465,0.0495,0.0541,0.0535,0.0598,0.0614,0.0655,0.0703,0.0691,0.0771,0.0792,0.0797,0.0734,0.073,0.0726,0.0719,0.0735,0,0,0,0,0,0.0149,0.018,0.0262,0.0287,0.0311,0.0383,0.0413,0.0449,0.0506,0.0524,0.0574,0.0627,0.0679,0.071,0.0764,0.0816,0.0857,0.0831,0.0827,0.0823,0.0831,0.0881,0.0882,0.0872,0.0872,0.0872,0,0,0.013,0.0181,0.0197,0.0275,0.0321,0.0362,0.0398,0.0444,0.0474,0.0533,0.0572,0.0615,0.0688,0.0737,0.076,0.0774,0.0848,0.0824,0.082,0.083,0.0881,0.0882,0.0883,0.0872,0.0872,0.0872,0,0,0.0115,0.0151,0.0171,0.0219,0.0288,0.0338,0.0342,0.0424,0.045,0.0504,0.0543,0.0583,0.067,0.0719,0.0756,0.0768,0.0821,0.0782,0.0766,0.0813,0.0814,0.0816,0.0865,0.0871,0.0785,0.0785,0.0785,0,0.0086,0.0126,0.0187,0.022,0.0252,0.0317,0.0343,0.0392,0.0475,0.05,0.0503,0.0618,0.0666,0.0733,0.073,0.076,0.0795,0.0773,0.0807,0.0809,0.0812,0.0862,0.087,0.0782,0.0782,0.0783,0.0783,0,0.0093,0.0119,0.0133,0.0195,0.0238,0.0271,0.0345,0.0381,0.0412,0.0464,0.0523,0.059,0.066,0.0675,0.0709,0.0755,0.0775,0.0788,0.0813,0.0808,0.0862,0.0871,0.0777,0.0778,0.0779,0.078,0,0,0.0036,0.0121,0.0121,0.014,0.0225,0.0261,0.031,0.0379,0.0411,0.0471,0.0519,0.0588,0.0619,0.0663,0.0707,0.0745,0.0783,0.0768,0.0772,0.0806,0.089,0.0776,0.0776,0.0796,0.0798,0.0799,0.0917,0,0.0015,0.0056,0.0113,0.0142,0.0163,0.024,0.0284,0.0353,0.0415,0.0479,0.0544,0.0603,0.0618,0.0647,0.0688,0.0767,0.0806,0.0751,0.09,0.0904,0.0795,0.0782,0.0703,0.0789,0.0927,0.0928,0.093,0,-0.0013,0.0024,0.0046,0.0115,0.0132,0.016,0.0239,0.0292,0.04,0.0448,0.0518,0.0585,0.066,0.0665,0.0791,0.0754,0.0815,0.0867,0.0873,0.08,0.0807,0.0819,0.0802,0.0946,0.0945,0.0944,0.0943,0,-0.0104,-0.0033,-0.0024,0.0001,0.0095,0.0115,0.0164,0.0267,0.0324,0.0426,0.048,0.058,0.0635,0.0724,0.0826,0.0816,0.0961,0.0967,0.0927,0.0922,0.09,0.0888,0.1051,0.1051,0.1051,0.105,0.105,0,-0.0164,-0.016,-0.007,-0.0068,-0.0043,0.0043,0.0086,0.0154,0.0269,0.0344,0.0446,0.0523,0.0648,0.0754,0.0839,0.0902,0.0975,0.0922,0.0938,0.087,0.0854,0.103,0.1026,0.1055,0.1054,0.1053,0.1052,0,-0.0281,-0.0222,-0.0205,-0.0118,-0.0093,-0.0082,0.0031,0.0085,0.0184,0.0292,0.0325,0.0487,0.0601,0.0729,0.0883,0.0899,0.0988,0.0997,0.0899,0.0897,0.0921,0.0913,0.0964,0.096,0.0958,0.0956,0.0954,0,-0.034,-0.0342,-0.0266,-0.024,-0.0208,-0.0161,-0.0108,0.0013,0.009,0.0275,0.0329,0.0464,0.052,0.0679,0.0768,0.087,0.0951,0.0847,0.0788,0.0898,0.091,0.0906,0.0901,0.0758,0.0755,0.0752,0.075,0,-0.0444,-0.0419,-0.0395,-0.0336,-0.0291,-0.0221,-0.0136,-0.0086,0.008,0.0148,0.0266,0.0306,0.0443,0.0492,0.0598,0.066,0.0811,0.0786,0.0969,0.0751,0.0702,0.0713,0.0717,0.0725,0.0728,0.073,0.0731,0.0732,-0.0525,-0.0525,-0.0473,-0.042,-0.0354,-0.0266,-0.0212,-0.0123,-0.0043,0.0067,0.013,0.0179,0.0252,0.0337,0.0441,0.059,0.061,0.0634,0.0645,0.0659,0.0572,0.0516,0.0491,0.0492,0.0493,0.0494,0.0494,0,-0.0606,-0.0574,-0.0536,-0.0455,-0.0387,-0.0323,-0.02,-0.017,-0.0109,-0.0034,-0.0021,0.0005,0.0039,0.0224,0.0379,0.0407,0.045,0.0448,0.0505,0.0524,0.0543,0.0454,0.0341,0.0342,0.0342,0.0343,0,0,-0.0642,-0.0632,-0.0594,-0.0495,-0.0419,-0.0307,-0.0234,-0.0238,-0.0174,-0.0176,-0.0112,-0.0154,0.0043,0.0109,0.018,0.0299,0.0407,0.0302,0.0404,0.0476,0.0495,0.0611,0.0488,0,0,0,0,0]}],[{"header":{"parameterUnit":"m.s-1","parameterCategory":2,"la1":30.2991,"la2":30.254,"lo1":-89.0895,"lo2":-89.0444,"dy":0.0017,"dx":0.0017,"nx":28,"ny":28,"refTime":"2025-11-14T09:00:00:Z","depth":"4","parameterNumber":2,"parameterNumberName":"U-component_of_CURRENTS"},"data":[0,0,0,0,0,0,0,0,0,0,0,0,0,0,0,0,0,0,0,0,0,0,0,0,0,0,0,0,0,0,0,0,0,0,0,0,0,0,0,0,0,0,0,0,0,0,0,0,0,0,0,0,0,0,0,0,0,0,-0.0852,-0.0852,0,-0.0913,-0.0915,-0.0916,-0.0965,-0.0965,-0.0965,-0.0964,-0.1034,-0.1036,-0.1038,0,0,0,0,0,0,0,0,0,0,0,0,0,-0.0865,-0.0865,-0.0852,-0.0852,-0.0852,-0.0913,-0.0915,-0.0916,-0.0965,-0.0965,-0.0964,-0.0964,-0.1033,-0.1036,-0.1038,0,0,0,0,0,0,0,0,0,0,0,0,0,-0.0893,-0.0864,-0.0852,-0.0879,-0.0881,-0.0913,-0.0915,-0.0917,-0.0965,-0.0965,-0.0964,-0.0964,-0.1033,-0.1035,-0.1038,-0.1061,0,0,-0.1048,-0.1049,0,0,0,0,0,0,0,0,-0.0891,-0.0893,-0.0874,-0.0877,-0.0879,-0.0925,-0.0945,-0.0963,-0.0965,-0.094,-0.0964,-0.0964,-0.0994,-0.1,-0.1022,-0.1064,-0.1067,-0.1048,-0.105,-0.1051,-0.1052,0,0,0,0,0,0,0,-0.0889,-0.0891,-0.0883,-0.0874,-0.0878,-0.0918,-0.0921,-0.0949,-0.0973,-0.0942,-0.0944,-0.094,-0.0996,-0.1019,-0.1024,-0.1068,-0.1048,-0.105,-0.1052,-0.1053,-0.1184,-0.1185,0,0,0,0,0,0,-0.0863,-0.0888,-0.0881,-0.0884,-0.0877,-0.0917,-0.0921,-0.0916,-0.0973,-0.0979,-0.0941,-0.0942,-0.1014,-0.102,-0.1026,-0.1101,-0.1051,-0.1054,-0.1055,-0.1182,-0.1184,-0.1186,0,0,0,0,0,0,-0.0863,-0.0862,-0.0878,-0.0883,-0.0887,-0.0915,-0.0911,-0.0918,-0.0952,-0.097,-0.0978,-0.0968,-0.1014,-0.1022,-0.1069,-0.1102,-0.1055,-0.1058,-0.118,-0.1183,-0.1185,-0.1221,0,0,0,0,0,0,-0.0863,-0.0861,-0.0878,-0.0881,-0.0885,-0.0905,-0.091,-0.0919,-0.0946,-0.0949,-0.0996,-0.1001,-0.1015,-0.1064,-0.1072,-0.1105,-0.106,-0.1178,-0.1181,-0.1184,-0.1217,-0.1224,-0.123,0,0,0,0,0,-0.0863,-0.0877,-0.0879,-0.0879,-0.0898,-0.0905,-0.0913,-0.0937,-0.0947,-0.0968,-0.1002,-0.1001,-0.1089,-0.1068,-0.1076,-0.1111,-0.1176,-0.118,-0.1184,-0.1215,-0.1223,-0.123,0,0,0,0,0,0,-0.0887,-0.0883,-0.0885,-0.0896,-0.0902,-0.0911,-0.0933,-0.0946,-0.0991,-0.1001,-0.1021,-0.103,-0.1082,-0.1093,-0.1069,-0.1159,-0.1133,-0.1139,-0.1154,-0.1162,-0.1168,-0.1159,-0.1063,0,0,0,0,0,-0.0898,-0.0905,-0.0903,-0.0909,-0.0913,-0.0927,-0.0943,-0.0955,-0.0978,-0.0999,-0.1042,-0.1079,-0.1104,-0.1128,-0.1159,-0.1209,-0.1185,-0.1238,-0.1244,-0.1249,-0.1249,-0.13,-0.1311,-0.1198,-0.1198,-0.1198,0,0,-0.0904,-0.0901,-0.0906,-0.0915,-0.0922,-0.0929,-0.0938,-0.0957,-0.0979,-0.0998,-0.1071,-0.1102,-0.112,-0.1176,-0.1202,-0.1192,-0.1249,-0.1254,-0.1258,-0.1255,-0.1305,-0.1316,-0.1325,-0.1201,-0.12,-0.12,0,0,-0.0893,-0.0918,-0.0914,-0.0923,-0.0931,-0.0948,-0.0952,-0.0987,-0.1025,-0.1082,-0.11,-0.1146,-0.1212,-0.123,-0.1239,-0.1297,-0.1277,-0.1323,-0.1355,-0.1405,-0.1414,-0.1423,-0.1313,-0.1312,-0.1332,-0.1332,-0.1332,0,-0.0901,-0.0886,-0.0916,-0.0909,-0.0918,-0.0951,-0.095,-0.0993,-0.105,-0.1082,-0.1108,-0.1208,-0.1227,-0.1266,-0.1298,-0.1308,-0.1297,-0.1322,-0.1412,-0.1421,-0.1429,-0.1315,-0.1313,-0.1335,-0.1334,-0.1334,-0.1334,0,-0.0869,-0.0874,-0.0871,-0.0876,-0.0906,-0.0907,-0.0955,-0.1028,-0.1086,-0.111,-0.1193,-0.1244,-0.1292,-0.1322,-0.1331,-0.1402,-0.1354,-0.1408,-0.1389,-0.1442,-0.1318,-0.1315,-0.1338,-0.1337,-0.1336,-0.1336,0,0,-0.0842,-0.0844,-0.0844,-0.0846,-0.0887,-0.0903,-0.0978,-0.1031,-0.1068,-0.1166,-0.1199,-0.1289,-0.1322,-0.1337,-0.1371,-0.1435,-0.145,-0.1465,-0.1467,-0.1343,-0.1465,-0.1395,-0.1383,-0.1557,-0.156,-0.1561,-0.1321,0,-0.0801,-0.0779,-0.0801,-0.0806,-0.0813,-0.089,-0.0947,-0.1018,-0.1089,-0.1144,-0.1212,-0.126,-0.132,-0.1361,-0.1429,-0.1468,-0.1462,-0.1502,-0.1443,-0.1437,-0.1364,-0.1387,-0.1568,-0.1318,-0.1318,-0.1317,-0.1317,0,-0.0769,-0.076,-0.0757,-0.0786,-0.0795,-0.0821,-0.0934,-0.0985,-0.1073,-0.1133,-0.1206,-0.1241,-0.1318,-0.1376,-0.1442,-0.1483,-0.1464,-0.1484,-0.1477,-0.1407,-0.1368,-0.128,-0.1311,-0.1311,-0.1312,-0.1312,-0.1313,0,-0.0753,-0.0738,-0.0739,-0.0746,-0.0793,-0.0839,-0.0883,-0.0989,-0.1032,-0.113,-0.1161,-0.1241,-0.1272,-0.1353,-0.1394,-0.1439,-0.143,-0.1474,-0.1346,-0.1333,-0.1447,-0.1442,-0.148,-0.148,-0.1481,-0.1481,-0.1482,0,-0.0711,-0.071,-0.0734,-0.0734,-0.0761,-0.0818,-0.086,-0.0949,-0.1012,-0.1019,-0.1145,-0.1161,-0.1299,-0.1307,-0.1352,-0.1325,-0.1381,-0.1329,-0.1303,-0.1451,-0.1451,-0.1437,-0.1435,-0.1472,-0.1474,-0.1476,-0.1478,0,-0.0691,-0.0701,-0.0703,-0.0736,-0.0759,-0.0789,-0.0834,-0.0856,-0.0958,-0.0975,-0.1011,-0.109,-0.1133,-0.119,-0.1241,-0.1231,-0.1243,-0.1196,-0.123,-0.1211,-0.1085,-0.1088,-0.1008,-0.1005,-0.1002,-0.0999,-0.0997,0,-0.0661,-0.0671,-0.0704,-0.0703,-0.0711,-0.0749,-0.0777,-0.0856,-0.0856,-0.0921,-0.0904,-0.0947,-0.0994,-0.0956,-0.1065,-0.1064,-0.109,-0.1013,-0.117,-0.1072,-0.1054,-0.1062,-0.1069,-0.0992,-0.0991,-0.099,-0.0989,0,-0.061,-0.0645,-0.0642,-0.0654,-0.0671,-0.0666,-0.0685,-0.0676,-0.0743,-0.0815,-0.0794,-0.0821,-0.0809,-0.0874,-0.0865,-0.0896,-0.106,-0.0981,-0.0989,-0.1136,-0.1051,-0.1038,-0.1049,-0.0979,-0.098,-0.0981,-0.0982,0,-0.058,-0.0569,-0.0588,-0.0591,-0.0594,-0.0571,-0.0591,-0.0571,-0.0595,-0.0659,-0.0626,-0.0706,-0.075,-0.0775,-0.0793,-0.0812,-0.083,-0.0824,-0.084,-0.0853,-0.0943,-0.0821,-0.0641,0,0,0,0,0,-0.0532,-0.053,-0.0515,-0.0501,-0.0485,-0.0496,-0.052,-0.0538,-0.0581,-0.054,-0.0583,-0.0589,-0.0628,-0.0673,-0.0671,-0.0748,-0.084,-0.0742,-0.0842,-0.0919,-0.0931,-0.1068,0,0,0,0,0,0,-0.0513,-0.0509,-0.0501,-0.0424,-0.0386,-0.0373,-0.0387,-0.042,-0.0399,-0.0452,-0.0484,-0.0535,-0.0596,-0.0613,-0.0649,-0.0664,-0.0713,-0.0791,-0.0789,-0.0912,-0.0923,-0.0933,-0.1078,0,0,0,0,0]},{"header":{"parameterUnit":"m.s-1","parameterCategory":2,"la1":30.2991,"la2":30.254,"lo1":-89.0895,"lo2":-89.0444,"dy":0.0017,"dx":0.0017,"nx":28,"ny":28,"refTime":"2025-11-14T09:00:00:Z","depth":"4","parameterNumber":3,"parameterNumberName":"V-component_of_CURRENTS"},"data":[0,0,0,0,0,0,0,0,0,0,0,0,0,0,0,0,0,0,0,0,0,0,0,0,0,0,0,0,0,0,0,0,0,0,0,0,0,0,0,0,0,0,0,0,0,0,0,0,0,0,0,0,0,0,0,0,0,0,-0.0349,-0.0349,0,-0.0368,-0.0368,-0.0368,-0.0348,-0.0347,-0.0346,-0.0346,-0.0345,-0.0346,-0.0347,0,0,0,0,0,0,0,0,0,0,0,0,0,-0.0246,-0.0249,-0.0349,-0.0349,-0.0349,-0.0368,-0.0368,-0.0368,-0.0348,-0.0347,-0.0346,-0.0345,-0.0345,-0.0346,-0.0347,0,0,0,0,0,0,0,0,0,0,0,0,0,-0.0282,-0.0249,-0.0349,-0.0341,-0.034,-0.0368,-0.0368,-0.0369,-0.0349,-0.0347,-0.0346,-0.0345,-0.0345,-0.0346,-0.0347,-0.0381,0,0,-0.0351,-0.0351,0,0,0,0,0,0,0,0,-0.028,-0.0286,-0.0342,-0.0341,-0.034,-0.0353,-0.0332,-0.0371,-0.0349,-0.0346,-0.0346,-0.0344,-0.0346,-0.0347,-0.0356,-0.0381,-0.0381,-0.0351,-0.0352,-0.0352,-0.0352,0,0,0,0,0,0,0,-0.0277,-0.0284,-0.0357,-0.0342,-0.0341,-0.0319,-0.0323,-0.0339,-0.0354,-0.0347,-0.0345,-0.0346,-0.0346,-0.0355,-0.0355,-0.0381,-0.0351,-0.0352,-0.0353,-0.0353,-0.047,-0.0472,0,0,0,0,0,0,-0.0278,-0.0283,-0.0357,-0.0358,-0.0305,-0.0322,-0.0327,-0.0351,-0.0354,-0.0353,-0.0347,-0.0345,-0.0353,-0.0354,-0.0355,-0.044,-0.0352,-0.0353,-0.0354,-0.0467,-0.047,-0.0473,0,0,0,0,0,0,-0.0276,-0.0285,-0.0356,-0.0318,-0.0325,-0.0325,-0.0353,-0.0352,-0.0359,-0.0354,-0.0353,-0.0353,-0.0352,-0.0354,-0.0392,-0.0438,-0.0354,-0.0355,-0.0464,-0.0468,-0.0471,-0.0581,0,0,0,0,0,0,-0.0273,-0.0285,-0.0302,-0.0319,-0.0327,-0.0383,-0.0354,-0.0354,-0.0361,-0.0358,-0.036,-0.0358,-0.0351,-0.039,-0.0393,-0.0438,-0.0356,-0.0461,-0.0466,-0.047,-0.0574,-0.0588,-0.0599,0,0,0,0,0,-0.027,-0.0307,-0.0304,-0.0312,-0.0353,-0.0384,-0.0388,-0.0382,-0.0363,-0.038,-0.0388,-0.0358,-0.042,-0.0394,-0.0396,-0.0442,-0.0459,-0.0465,-0.047,-0.0568,-0.0585,-0.0599,0,0,0,0,0,0,-0.0274,-0.0309,-0.0306,-0.0352,-0.0368,-0.038,-0.04,-0.0387,-0.0407,-0.0407,-0.0392,-0.0393,-0.0448,-0.043,-0.0401,-0.0489,-0.0434,-0.044,-0.0508,-0.0523,-0.0535,-0.0522,-0.0357,0,0,0,0,0,-0.0283,-0.0319,-0.034,-0.0376,-0.0391,-0.0394,-0.0403,-0.0401,-0.0418,-0.0424,-0.0429,-0.0441,-0.0474,-0.0484,-0.0507,-0.0552,-0.0498,-0.0583,-0.0595,-0.0606,-0.0598,-0.0563,-0.057,-0.049,-0.049,-0.049,0,0,-0.0297,-0.0317,-0.0339,-0.0378,-0.0393,-0.043,-0.0398,-0.0427,-0.0452,-0.0423,-0.0471,-0.0489,-0.0498,-0.056,-0.058,-0.0547,-0.0602,-0.0613,-0.0622,-0.0608,-0.0569,-0.0576,-0.0582,-0.0494,-0.0493,-0.0493,0,0,-0.0339,-0.0362,-0.0405,-0.0425,-0.045,-0.0459,-0.0468,-0.0493,-0.0501,-0.0551,-0.0545,-0.0587,-0.0626,-0.0648,-0.0661,-0.0753,-0.0675,-0.0762,-0.081,-0.0777,-0.0782,-0.0786,-0.0729,-0.0727,-0.0762,-0.0762,-0.0762,0,-0.035,-0.0405,-0.042,-0.0461,-0.0481,-0.0476,-0.0519,-0.0538,-0.0568,-0.0581,-0.0579,-0.0659,-0.0671,-0.0737,-0.0778,-0.0781,-0.0732,-0.0753,-0.079,-0.0793,-0.0795,-0.0736,-0.0732,-0.0768,-0.0767,-0.0766,-0.0766,0,-0.0421,-0.0461,-0.0491,-0.0543,-0.0569,-0.0606,-0.063,-0.0658,-0.0668,-0.0678,-0.0746,-0.078,-0.0812,-0.0843,-0.0843,-0.0883,-0.0834,-0.0814,-0.0746,-0.0809,-0.0743,-0.0737,-0.0776,-0.0774,-0.0772,-0.0771,0,0,-0.0456,-0.0526,-0.0538,-0.0557,-0.0611,-0.0635,-0.0694,-0.0733,-0.0743,-0.0803,-0.0829,-0.0925,-0.0921,-0.0936,-0.0947,-0.0937,-0.0928,-0.0887,-0.0882,-0.0819,-0.0828,-0.0762,-0.0748,-0.0906,-0.0906,-0.0906,-0.0775,0,-0.0502,-0.0577,-0.0609,-0.0675,-0.071,-0.0731,-0.0773,-0.0804,-0.0823,-0.0847,-0.0895,-0.0932,-0.096,-0.0978,-0.0983,-0.0933,-0.0917,-0.0963,-0.0785,-0.0779,-0.0703,-0.0741,-0.0905,-0.077,-0.0769,-0.0767,-0.0767,0,-0.0557,-0.0593,-0.067,-0.0712,-0.0732,-0.0774,-0.0813,-0.0853,-0.0886,-0.0895,-0.0945,-0.0954,-0.099,-0.0989,-0.0943,-0.0964,-0.0908,-0.087,-0.0863,-0.0753,-0.0702,-0.0694,-0.0755,-0.0756,-0.0757,-0.0757,-0.0758,0,-0.0549,-0.063,-0.0684,-0.0706,-0.0767,-0.0802,-0.0836,-0.0871,-0.0888,-0.0921,-0.0921,-0.0958,-0.096,-0.0924,-0.0865,-0.0891,-0.0769,-0.0783,-0.0675,-0.0668,-0.0715,-0.0711,-0.0737,-0.0738,-0.0738,-0.0738,-0.0739,0,-0.0573,-0.0613,-0.0683,-0.0711,-0.0756,-0.0804,-0.0844,-0.087,-0.09,-0.0906,-0.0945,-0.0944,-0.094,-0.0881,-0.0837,-0.0722,-0.0739,-0.0677,-0.0634,-0.0766,-0.077,-0.0709,-0.0708,-0.0733,-0.0734,-0.0735,-0.0736,0,-0.0561,-0.0612,-0.0666,-0.0736,-0.0757,-0.0793,-0.085,-0.0867,-0.0892,-0.0899,-0.0912,-0.0911,-0.0827,-0.0787,-0.0689,-0.0661,-0.0569,-0.0522,-0.0637,-0.0603,-0.0499,-0.0505,-0.0397,-0.0394,-0.0391,-0.0389,-0.0387,0,-0.0567,-0.0595,-0.0673,-0.07,-0.0739,-0.0792,-0.0822,-0.0865,-0.0867,-0.0871,-0.086,-0.0804,-0.0787,-0.0598,-0.0563,-0.0441,-0.0443,-0.0395,-0.0499,-0.0497,-0.0466,-0.0477,-0.0486,-0.0382,-0.0382,-0.0381,-0.038,0,-0.0563,-0.0595,-0.0639,-0.0683,-0.0727,-0.0772,-0.0808,-0.0801,-0.0833,-0.0847,-0.0793,-0.0743,-0.0632,-0.0554,-0.044,-0.0374,-0.0434,-0.0367,-0.0374,-0.0471,-0.0478,-0.0452,-0.0465,-0.037,-0.0372,-0.0373,-0.0373,0,-0.0555,-0.0581,-0.0628,-0.0666,-0.0714,-0.0742,-0.0767,-0.0763,-0.0772,-0.0763,-0.0734,-0.0669,-0.0638,-0.0512,-0.0416,-0.0329,-0.0341,-0.0356,-0.0364,-0.0374,-0.0424,-0.0433,-0.0268,0,0,0,0,0,-0.0542,-0.0565,-0.0599,-0.0645,-0.0688,-0.0715,-0.0749,-0.0767,-0.0774,-0.0723,-0.0729,-0.063,-0.051,-0.0471,-0.0368,-0.0374,-0.0326,-0.0253,-0.0348,-0.0316,-0.0327,-0.0386,0,0,0,0,0,0,-0.0537,-0.0567,-0.0589,-0.0615,-0.064,-0.0686,-0.0713,-0.0725,-0.0687,-0.0686,-0.0614,-0.0606,-0.0478,-0.0553,-0.0363,-0.0341,-0.0391,-0.0202,-0.02,-0.0309,-0.032,-0.0329,-0.0394,0,0,0,0,0]}]]